Content
SEND FEEDBACK

Daily
Averages
Monthly
Summary
United States of America

CHICAGO, ILLINOIS


Home > North America > United States > Illinois
Elevation: 205 meters     Latitude: 41 59N     Longitude: 087 54W

WEATHER
 
SELECT A DAY
Number of Records: 194,883;   Date Range: 7/8/95 - 7/29/14
 
SHARE

PRINT THIS DATA

[ ← Previous Day ]
WEATHER ALMANAC - 3 JANUARY, 2014
[ Next Day → ]
[ °F ]   °C
Weather ElementAverageHighLow
Temperature-11.9 °C-6.7 °C (10:52 pm)-21.1 °C (7:52 am)
Dewpoint-16.1 °C-11.1 °C (9:52 pm)-22.2 °C (1:52 am)
Humidity71.9 %91 % (7:52 am)61 % (9:52 am)
Barometer1023.7 hPa1031.8 hPa (2:52 am)1014.2 hPa (9:06 pm)
Wind Speed24.5 km/h48.1 km/h (8:59 pm)
Wind Gust64.9 km/h (8:52 pm)
Weather ElementAverage
Visibility11.3 km
Wind DirectionSSW (193.5 °)

Weather ElementTotal
Precipitation---
Heating Degree Days32.3 (Base 18.3)
Averaged from 31 records on 3 January, 2014
WEATHER CONDITIONS BREAKOUT
WIND DIRECTION BREAKOUT
WEATHER BY HOUR - 3 JANUARY, 2014
[ °F ]   °C
Local TimeTemperatureDewpointHumidityBarometerVisibilityWind DirectionWind SpeedGust SpeedPrecipitationEventsConditions
1:52 AM-18.3 °C-22.2 °C72 %1031.2 hPa16.1 kmNW (320°)5.6 km/hClear
2:05 AM-18 °C-21 °C78 %1029.5 hPa4 kmNW (320°)5.6 km/hHaze
2:19 AM-17 °C-21 °C72 %1029.8 hPa6.4 kmNW (310°)5.6 km/hHaze
2:52 AM-17.8 °C-21.1 °C76 %1031.8 hPa12.9 kmNW (320°)7.4 km/hPartly Cloudy
3:52 AM-18.3 °C-21.7 °C75 %1031.2 hPa16.1 kmCalmClear
4:52 AM-18.3 °C-21.7 °C75 %1031.5 hPa16.1 kmWest (270°)5.6 km/hClear
5:52 AM-18.9 °C-21.7 °C79 %1031.5 hPa16.1 kmCalmClear
6:52 AM-19.4 °C-22.2 °C79 %1031.8 hPa16.1 kmSSW (200°)5.6 km/hClear
7:52 AM-21.1 °C-22.2 °C91 %1031.5 hPa6.4 kmSSE (150°)7.4 km/hClear
8:52 AM-17.2 °C-20 °C79 %1031.5 hPa16.1 kmSouth (190°)7.4 km/hClear
9:52 AM-13.9 °C-20 °C61 %1030.8 hPa16.1 kmSouth (190°)13 km/hClear
10:52 AM-12.2 °C-17.8 °C64 %1030.1 hPa16.1 kmSouth (190°)18.5 km/hScattered Clouds
11:52 AM-11.7 °C-17.8 °C61 %1028.8 hPa16.1 kmSSW (200°)18.5 km/h33.3 km/hClear
12:52 PM-10.6 °C-16.7 °C62 %1026.4 hPa16.1 kmSouth (180°)24.1 km/hClear
1:52 PM-9.4 °C-15.6 °C61 %1024.7 hPa16.1 kmSouth (180°)27.8 km/hMostly Cloudy
2:52 PM-8.9 °C-13.9 °C68 %1024 hPa16.1 kmSouth (180°)31.5 km/h40.7 km/hMostly Cloudy
3:52 PM-8.3 °C-13.9 °C65 %1022.7 hPa11.3 kmSouth (180°)35.2 km/h46.3 km/hMostly Cloudy
4:52 PM-8.3 °C-13.3 °C68 %1021.7 hPa11.3 kmSouth (190°)31.5 km/h48.1 km/hPartly Cloudy
5:52 PM-8.9 °C-13.3 °C71 %1020.3 hPa9.7 kmSouth (180°)37 km/h50.1 km/hHaze
6:52 PM-8.9 °C-13.3 °C71 %1019.3 hPa9.7 kmSouth (180°)37 km/h50.1 km/hHaze
7:33 PM-8 °C-12 °C73 %1017.3 hPa4 kmSouth (180°)37 km/h57.5 km/hHaze
7:36 PM-8 °C-12 °C73 %1016.9 hPa9.7 kmSouth (190°)38.9 km/h57.5 km/hHaze
7:52 PM-8.3 °C-12.2 °C74 %1018.6 hPa9.7 kmSouth (190°)35.2 km/h62.9 km/hHaze
8:10 PM-8 °C-12 °C73 %1015.9 hPa3.2 kmSouth (180°)42.6 km/h61.2 km/hHaze
8:17 PM-8 °C-12 °C73 %1015.9 hPa8 kmSouth (190°)35.2 km/h59.2 km/hHaze
8:52 PM-7.8 °C-11.7 °C74 %1015.9 hPa8 kmSouth (190°)42.6 km/h64.9 km/hHaze
8:59 PM-8 °C-12 °C73 %1014.6 hPa4 kmSouth (190°)48.1 km/h62.9 km/hHaze
9:06 PM-8 °C-12 °C73 %1014.2 hPa8 kmSouth (180°)44.4 km/h62.9 km/hHaze
9:52 PM-7.2 °C-11.1 °C74 %1015.6 hPa8 kmSouth (190°)40.7 km/h57.5 km/hHaze
10:52 PM-6.7 °C-11.1 °C71 %1014.6 hPa6.4 kmSouth (190°)37 km/h57.5 km/hHaze
11:52 PM-6.7 °C-11.1 °C71 %1014.2 hPa12.9 kmSSW (200°)31.5 km/h50.1 km/hClear
Hourly data recorded from KPWK, located 0 kilometers away from Chicago, Illinois







STORIES FROM OUR PARTNERS